EHI
0 0 0 0 0 0 0 0 0 0 0 0 0 0 0 0 0 0 0 0 0 0 0 0 0 0 0 0 0 0 0 0 0 0 0 0 0 0 0 0 0 0 0
0 0 0 0 0 0 0 0 0 0 0 0 0 0 0 0 0 0 0 0 0 0 0 0 0 0 0 0 0 0 0 0 0 0 0 0 0 0 0 0 0 0 0
0 0 0 0 0 0 0 0 0 0 0 0 0 0 0 0 0 0 0 0 0 0 0 0 0 0 0 0 0 0 0 0 0 0 0 0 0 0 0 0 0 0 0
0 0 0 0 0 0 0 0 0 0 0 0 0 0 0 0 0 0 0 0 0 0 0 0 0 0 0 0 0 0 0 0 0 0 0 0 0 0 0 0 0 0 0
0 0 0 0 0 0 0 0 0 0 0 0 0 0 0 0 0 0 0 0 0 0 0 0 0 0 0 0 0 0 0 0 0 0 0 0 0 0 0 0 0 0 0
0 0 0 0 0 0 0 0 0 0 0 0 0 0 0 0 0 0 0 0 0 0 0 0 0 0 0 0 0 0 0 0 0 0 0 0 0 0 0 0 0 0 0
0 0 0 0 0 0 0 0 0 0 0 0 0 0 0 0 0 0 0 0 0 0 0 0 0 0 0 0 0 0 0 0 0 0 0 0 0 0 0 0 0 0 0
0 0 0 0 0 0 0 0 0 0 0 0 0 0 0 0 0 0 0 0 0 0 0 0 0 0 0 0 0 0 0 0 0 0 0 0 0 0 0 0 0 0 0
0 0 0 0 0 0 0 0 0 0 0 0 0 0 0 0 0 0 0 0 0 0 0 0 0 0 0 0 0 0 0 0 0 0 0 0 0 0 0 0 0 0 0
0 0 0 0 0 0 0 0 0 0 0 0 0 0 0 0 0 0 0 0 0 0 0 0 0 0 0 0 0 0 0 0 0 0 0 0 0 0 0 0 0 0 0
0 0 0 0 0 0 0 0 0 0 0 0 0 0 0 0 0 0 0 0 0 0 0 0 0 0 0 0 0 0 0 0 0 0 0 0 0 0 0 0 0 0 0
0 0 0 0 0 0 0 0 0 0 0 0 0 0 0 0 0 0 0 0 0 0 0 0 0 0 0 0 0 0 0 0 0 0 0 0 0 0 0 0 0 0 0
0 0 0 0 0 0 0 0 0 0 0 0 0 0 0 0 0 0 0 0 0 0 0 0 0 0 0 0 0 0 0 0 0 0 0 0 0 0 0 0 0 0 0
0 0 0 0 0 0 0 0 0 0 0 0 0 0 0 0 0 0 0 0 0 0 0 0 0 0 0 0 0 0 0 0 0 0 0 0 0 0 0 0 0 0 0
0 0 0 0 0 0 0 0 0 0 0 0 0 0 0 0 0 0 0 0 0 0 0 0 0 0 0 0 0 0 0 0 0 0 0 0 0 0 0 0 0 0 0
0 0 0 0 0 0 0 0 0 0 0 0 0 0 0 0 0 0 0 0 0 0 0 0 0 0 0 0 0 0 0 0 0 0 0 0 0 0 0 0 0 0 0
0 0 0 0 0 0 0 0 0 0 0 0 0 0 0 0 0 0 0 0 0 0 0 0 0 0 0 0 0 0 0 0 0 0 0 0 0 0 0 0 0 0 0
0 0 0 0 0 0 0 0 0 0 0 0 0 0 0 0 0 0 0 0 0 0 0 0 0 0 0 0 0 0 0 0 0 0 0 0 0 0 0 0 0 0 0
0 0 0 0 0 0 0 0 0 0 0 0 0 0 0 0 0 0 0 0 0 0 0 0 0 0 0 0 0 0 0 0 0 0 0 0 0 0 0 0 0 0 0
0 0 0 0 0 0 0 0 0 0 0 0 0 0 0 0 0 0 0 0 0 0 0 0 0 0 0 0 0 0 0 0 0 0 0 0 0 0 0 0 0 0 0
0 0 0 0 0 0 0 0 0 0 0 0 0 0 0 0 0 0 0 0 0 0 0 0 0 0 0 0 0 0 0 0 0 0 0 0 0 0 0 0 0 0 0
0 0 0 0 0 0 0 0 0 0 0 0 0 0 0 0 0 0 0 0 0 0 0 0 0 0 0 0 0 0 0 0 0 0 0 0 0 0 0 0 0 0 0
0 0 0 0 0 0 0 0 0 0 0 0 0 0 0 0 0 0 0 0 0 0 0 0 0 0 0 0 0 0 0 0 0 0 0 0 0 0 0 0 0 0 0
0 0 0 0 0 0 0 0 0 0 0 0 0 0 0 0 0 0 0 0 0 0 0 0 0 0 0 0 0 0 0 0 0 0 0 0 0 0 0 0 0 0 0
0 0 0 0 0 0 0 0 0 0 0 0 0 0 0 0 0 0 0 0 0 0 0 0 0 0 0 0 0 0 0 0 0 0 0 0 0 0 0 0 0 0 0
0 0 0 0 0 0 0 0 0 0 0 0 0 0 0 0 0 0 0 0 0 0 0 0 0 0 0 0 0 0 0 0 0 0 0 0 0 0 0 0 0 0 0
Wind_Speed
10 10 11 11 12 12 11 11 11 10 11 13 13 12 12 12 12 11 10 10 10 8 7 9 8 7 6 4 4 4 3 3 4 2 2 3 3 2 1 0 1 1 2
7 8 9 9 10 11 12 12 10 10 11 11 11 12 12 12 12 13 12 12 12 12 11 10 9 7 8 6 5 5 4 3 4 4 2 2 2 2 1 1 1 1 2
5 5 6 7 9 10 10 10 10 10 10 10 11 12 12 12 12 12 12 12 13 13 13 13 12 11 9 6 6 6 4 3 3 4 3 2 1 1 0 1 2 2 3
4 5 5 6 6 6 6 7 8 9 10 10 11 11 11 11 12 11 11 10 10 10 10 11 12 13 12 11 8 7 6 5 4 4 3 2 1 1 1 1 2 2 3
4 4 4 3 2 3 3 4 5 6 7 8 9 9 9 9 10 11 11 11 11 10 9 9 10 11 12 11 9 9 9 6 5 4 3 2 2 2 2 1 1 2 3
4 4 2 2 2 2 3 3 4 4 4 5 7 8 9 8 11 15 13 11 11 12 11 8 8 9 12 13 13 13 12 9 8 5 4 4 4 3 2 2 1 1 3
3 3 2 2 3 2 3 3 4 4 4 5 6 7 8 8 13 15 14 10 10 10 11 11 8 7 9 9 11 12 9 10 9 7 6 5 4 4 4 3 2 2 3
3 3 2 3 3 3 3 3 3 3 4 4 5 6 5 7 13 15 14 9 8 8 9 10 11 11 10 11 10 8 6 5 6 4 4 3 3 4 4 3 2 2 3
3 3 3 3 3 4 3 3 3 3 3 3 3 5 6 6 12 15 14 7 7 7 7 8 9 11 16 17 12 9 7 4 6 6 6 5 6 7 6 3 2 1 2
3 3 3 3 4 3 3 3 2 3 3 3 3 3 5 5 11 15 15 7 8 7 6 6 9 12 17 18 11 10 10 7 6 5 5 5 4 5 7 5 4 3 2
2 3 3 3 3 3 3 3 3 3 4 4 4 3 3 5 10 15 15 6 8 8 7 7 7 16 18 18 13 8 9 8 7 6 4 4 3 3 4 4 4 4 4
3 4 3 3 3 3 4 4 4 4 4 4 4 3 2 3 6 11 15 11 10 7 7 6 7 16 17 17 11 10 12 9 5 5 5 5 5 5 4 4 4 4 3
4 3 3 3 3 3 4 4 4 3 3 4 4 4 3 3 5 10 12 12 11 5 4 8 11 15 15 11 12 13 9 6 6 6 6 6 5 4 4 3 3 2 3
4 3 3 3 3 3 2 2 3 3 3 3 4 4 4 4 4 5 5 5 7 5 5 6 11 13 10 7 6 8 5 6 6 6 5 4 4 4 4 4 3 3 2
4 3 3 3 3 2 2 1 1 1 2 3 3 4 5 5 7 10 8 6 6 6 7 5 5 6 6 5 5 5 5 5 6 5 5 5 5 5 4 4 3 3 4
4 3 2 2 2 2 2 2 1 0 1 2 2 3 2 4 7 11 13 12 12 13 8 6 7 7 8 7 7 6 6 7 7 6 6 6 6 6 5 4 4 5 5
4 3 2 2 2 2 2 1 1 1 1 1 2 4 4 5 8 10 11 12 13 14 7 6 7 7 7 7 7 7 7 7 6 6 7 7 6 6 6 6 6 6 6
4 4 3 2 2 2 1 1 1 1 0 1 1 2 3 4 6 8 10 9 8 9 6 6 6 6 6 6 7 6 6 6 6 7 7 7 7 6 6 7 7 7 6
4 3 2 2 2 2 1 1 1 1 0 0 0 1 1 3 4 7 8 5 6 6 6 6 6 5 5 6 6 6 6 7 7 7 7 8 7 7 7 7 7 8 7
3 4 3 2 2 2 1 1 1 0 0 1 1 1 1 1 2 3 4 4 4 5 5 5 5 5 5 5 5 5 6 6 7 7 7 7 7 7 8 8 8 7 7
3 3 3 2 2 1 1 1 0 0 1 1 1 2 3 2 3 3 4 4 4 4 4 4 4 4 4 4 4 5 6 6 6 7 7 7 7 7 7 7 7 7 6
2 2 2 2 1 1 1 1 1 1 1 2 2 2 4 2 2 2 3 3 2 2 2 2 3 3 4 4 4 5 6 6 6 6 6 6 7 7 6 7 7 7 6
2 2 2 2 1 1 1 1 1 1 1 2 2 2 2 2 2 2 2 2 2 2 2 2 3 3 3 3 4 4 5 6 6 6 6 7 7 7 7 8 9 8 8
2 2 2 1 1 1 1 1 1 1 2 2 2 2 2 2 2 3 2 2 2 2 2 2 3 4 4 3 3 3 4 4 4 5 8 7 8 7 7 7 8 9 8
2 2 1 1 1 1 1 1 1 2 2 2 2 2 3 3 3 3 3 2 3 3 3 3 3 3 5 5 5 5 7 8 7 5 6 7 8 8 8 8 8 8 8
1 1 1 1 1 1 2 2 2 2 2 3 3 3 3 3 3 3 3 3 3 3 4 3 4 5 5 5 6 8 9 10 10 9 6 6 7 7 8 7 8 8 8
Wind_Direction
218 217 215 215 214 214 216 216 211 203 195 193 194 194 195 194 190 189 187 178 180 177 171 172 172 160 160 160 149 147 145 138 150 141 109 129 137 145 138 318 315 326 321
222 222 220 216 213 214 217 215 208 203 197 193 189 191 193 193 189 188 184 182 181 179 178 171 171 164 161 160 157 155 151 141 142 152 138 141 153 161 167 294 305 306 299
224 227 227 220 216 217 217 211 204 199 194 190 188 191 192 192 191 191 186 185 185 182 178 176 173 166 166 164 159 154 147 133 119 136 147 137 141 155 133 295 287 289 299
218 224 228 227 222 221 215 205 199 193 191 191 191 192 191 191 191 187 182 182 181 178 176 175 173 173 171 167 163 156 145 136 129 135 145 157 170 172 152 241 293 301 299
211 222 229 231 224 209 201 195 189 189 191 187 187 186 185 186 188 183 177 177 174 169 166 170 172 170 166 164 162 159 155 152 149 154 164 165 179 176 191 186 248 303 295
203 216 211 195 192 188 180 170 168 173 172 173 182 181 184 190 186 183 175 174 172 169 166 162 156 156 159 157 156 160 164 163 167 167 177 190 194 183 166 172 199 318 297
188 193 185 178 176 178 163 157 168 171 168 173 179 182 188 190 180 179 175 168 170 171 166 161 158 157 151 147 151 156 168 178 176 169 179 188 180 177 167 180 201 222 248
178 181 178 173 170 162 162 169 165 160 170 175 177 180 180 184 179 176 167 158 158 162 166 165 161 160 162 154 149 152 159 172 178 175 168 164 160 153 159 170 187 243 273
182 188 181 174 169 166 174 174 160 156 164 166 169 173 175 177 176 170 159 151 151 154 157 160 162 163 169 164 157 160 165 177 188 179 171 172 174 170 162 143 160 189 266
188 177 164 165 170 173 171 160 147 153 156 147 154 165 170 170 174 170 162 153 153 153 152 158 168 170 172 171 167 168 178 180 166 168 176 184 179 189 193 181 177 185 209
135 136 140 150 154 152 141 134 136 135 133 136 138 141 158 166 174 175 171 162 162 161 166 170 179 181 181 181 177 178 182 162 164 169 172 173 176 187 194 190 190 194 200
116 119 124 129 129 133 134 131 135 140 142 142 141 141 145 158 172 180 181 178 168 167 174 171 178 183 185 185 181 181 177 163 158 171 184 196 199 202 199 193 196 208 217
105 108 111 113 115 126 136 141 141 150 155 157 161 167 167 164 179 183 184 183 178 167 163 169 176 184 184 185 188 184 174 171 176 192 206 210 202 189 172 172 185 205 238
107 105 106 113 112 111 117 138 152 164 169 168 175 178 170 171 176 173 172 173 174 163 148 160 175 182 181 175 180 189 186 188 195 206 210 199 170 168 177 175 184 187 223
99 98 99 96 104 107 104 115 151 179 192 185 189 183 181 190 195 186 174 174 167 162 145 144 159 169 182 187 191 193 194 198 207 210 204 195 188 189 192 181 183 186 208
98 93 91 94 93 97 97 64 55 93 242 235 216 197 201 194 181 189 193 189 182 172 163 177 187 192 196 197 198 200 203 209 211 209 209 205 201 201 199 190 190 199 216
93 95 91 93 100 103 106 111 67 20 18 281 237 219 213 201 197 198 198 195 192 186 192 195 200 202 204 201 202 205 210 208 203 206 211 210 206 204 203 203 203 209 220
78 80 82 87 94 103 112 119 126 132 17 331 313 254 221 211 209 206 203 194 197 198 206 209 211 208 207 208 208 211 211 202 202 207 209 209 206 206 209 212 209 211 214
73 71 69 74 76 80 86 95 108 131 192 243 318 308 260 228 219 213 202 202 204 207 210 215 216 213 212 214 214 212 211 208 205 205 208 208 207 208 214 215 214 212 209
65 66 71 76 76 74 71 74 69 92 218 229 222 233 202 172 202 212 211 212 217 221 220 223 223 221 220 220 216 212 212 212 209 210 211 209 208 210 215 214 212 210 211
60 60 60 63 63 64 63 60 37 315 272 268 258 254 236 211 226 229 225 224 227 230 229 227 225 224 224 222 218 218 218 220 217 214 213 211 208 211 213 214 214 212 209
56 63 61 62 58 49 29 12 344 315 299 292 293 297 278 260 253 254 249 247 246 247 244 237 235 230 225 221 220 221 224 225 222 218 217 213 210 210 208 209 210 209 204
49 60 63 55 49 34 17 355 333 316 308 305 306 299 290 273 269 271 276 280 277 269 267 256 252 250 241 233 226 224 229 230 225 217 214 213 209 206 204 209 208 204 204
36 44 48 44 35 22 338 312 304 299 294 295 297 291 285 281 280 282 283 286 286 281 274 264 259 259 258 249 240 238 240 240 227 222 220 218 213 207 204 207 208 209 207
34 34 27 10 342 312 298 289 284 282 281 279 278 279 282 285 284 283 283 282 281 277 277 277 271 264 258 254 250 247 250 251 242 227 220 219 216 209 205 205 205 204 204
8 357 325 302 287 280 276 275 274 273 270 271 271 271 273 274 275 274 274 272 272 270 270 268 267 266 265 261 258 258 254 253 245 229 216 216 216 214 205 207 205 203 199